Lapse_Rate
5.9 5.7 5.6 5.3 3.8 3.3 3.6 4.8 6.5 7.2 7.3 7.0 6.1 6.1 5.3 4.6 5.6 5.9 5.7 5.9 6.3 6.0
5.7 5.6 5.4 4.9 5.2 4.0 3.1 4.4 6.2 6.6 7.0 7.0 6.3 6.0 6.1 5.7 5.7 5.1 5.8 5.7 6.0 6.0
5.8 5.7 5.5 5.2 5.3 4.1 3.2 3.9 6.6 6.3 6.4 7.0 5.8 5.2 4.9 5.7 5.8 5.7 5.0 5.2 4.9 5.6
6.6 6.3 5.8 5.8 6.1 3.9 3.7 4.2 5.8 5.9 3.5 3.3 6.2 5.4 5.6 5.3 5.3 5.6 5.3 5.3 5.3 5.5
5.3 5.2 4.3 3.8 3.3 3.9 5.9 6.2 6.6 6.9 5.8 4.2 6.2 5.3 5.5 5.7 5.5 5.5 5.8 4.8 4.9 5.2
5.7 4.3 3.6 3.1 0.8 -0.4 -0.8 -0.6 -1.8 -1.8 -0.7 0.3 0.7 4.6 5.4 5.4 5.5 5.3 5.5 5.5 4.9 5.2
5.5 4.8 4.4 4.0 0.3 -0.4 -1.0 -2.4 -0.7 -0.4 -1.9 -1.5 -3.2 -1.6 -0.6 5.0 5.0 5.0 4.6 4.9 3.6 2.2
5.9 6.1 4.3 2.2 2.1 1.2 -2.0 -4.6 -0.8 -1.7 -2.1 -2.3 -2.0 -1.7 -1.2 -1.0 -1.0 -0.1 -0.4 -0.0 -0.1 -1.8
5.1 5.7 5.3 2.0 1.7 1.1 0.8 1.1 2.3 0.4 -1.0 -2.3 -1.0 -1.2 -1.2 -3.8 -4.5 -4.2 -3.9 -3.5 -2.2 -1.7
4.1 4.2 4.2 3.6 2.7 2.1 2.8 2.2 1.5 1.6 2.0 2.3 1.7 0.6 -0.9 -1.5 -2.1 -1.7 -3.2 -3.3 -3.4 -2.9
3.6 3.4 3.3 3.2 4.1 1.6 4.1 2.0 1.8 1.2 1.8 1.4 1.9 1.9 0.9 -0.6 -1.9 0.2 -2.3 -1.9 -2.8 -1.8
2.8 2.4 2.7 3.4 3.3 2.2 3.7 2.7 1.6 1.6 0.4 2.6 1.2 2.2 0.0 -0.4 -0.2 0.1 -1.3 0.1 -0.2 -1.8
3.8 2.0 2.1 2.5 2.4 3.5 3.8 3.7 2.5 3.0 1.2 2.4 1.6 2.9 2.0 1.7 0.4 0.3 -0.4 -0.3 -0.2 -0.6
2.1 2.8 1.8 1.9 1.8 2.0 2.3 1.8 2.5 2.6 2.1 2.2 2.8 2.5 3.4 2.9 2.5 2.6 2.1 2.2 1.8 1.2
Wind_Speed
17 12 13 16 14 14 13 12 13 15 19 20 19 15 16 12 12 14 14 17 14 11
15 16 15 18 17 14 18 15 17 15 18 22 17 17 15 11 14 14 15 15 14 12
15 16 16 16 19 19 20 21 19 10 15 18 14 13 12 13 12 14 12 11 15 14
12 12 12 12 17 20 19 20 21 11 9 4 17 15 15 13 13 14 14 12 14 16
13 13 12 12 13 10 18 18 18 12 16 18 23 18 16 15 13 14 14 14 12 14
14 14 14 14 15 16 17 18 18 16 15 10 8 10 13 14 14 14 13 11 13 12
18 16 14 14 19 18 18 21 18 16 15 14 13 11 9 12 12 10 7 7 4 5
15 15 15 20 20 20 22 24 18 18 18 18 16 11 12 15 16 15 14 13 13 14
16 18 18 23 23 24 24 20 17 22 23 21 15 28 23 19 16 17 14 13 13 12
19 19 21 20 21 22 20 19 23 22 21 21 21 27 26 25 16 14 15 15 14 12
18 19 19 19 19 23 16 20 19 21 20 21 21 30 26 27 20 13 19 16 14 11
19 19 20 19 19 19 14 18 19 17 24 18 23 32 33 24 15 9 19 12 16 17
17 19 19 18 18 15 13 14 14 16 19 25 19 29 32 18 13 15 12 15 13 28
17 16 16 15 15 14 15 15 14 15 16 18 20 21 30 29 12 9 10 9 10 11
Wind_Direction
291 283 276 269 269 274 270 263 257 244 234 221 219 198 197 195 195 200 209 206 205 207
284 276 270 268 265 267 269 263 254 249 236 231 210 201 195 200 195 195 204 207 206 204
285 275 266 262 259 256 261 266 262 222 239 243 224 199 200 199 201 202 202 205 202 211
312 308 297 273 274 244 252 259 262 220 150 238 252 222 210 197 195 202 199 201 201 207
347 350 350 340 329 356 244 264 284 239 187 201 228 214 207 196 193 195 201 198 208 207
359 10 12 7 16 30 44 46 35 36 31 18 3 226 194 191 191 188 191 191 202 205
12 15 19 27 36 35 43 45 36 35 42 29 20 11 335 194 182 160 178 173 110 65
14 22 30 41 40 40 40 47 27 34 37 36 30 17 20 56 60 69 70 67 75 58
20 24 32 43 39 41 41 48 44 41 38 35 28 26 39 52 56 58 51 50 45 52
22 24 32 40 43 46 40 42 47 46 41 40 34 27 38 56 54 49 59 53 48 38
21 25 28 33 36 50 28 42 45 41 41 40 36 31 35 49 57 33 45 45 57 53
21 26 27 28 31 39 31 42 44 35 45 24 41 25 37 37 43 40 47 39 45 47
29 31 27 25 27 32 32 40 47 44 49 31 36 33 39 31 35 32 35 33 35 45
27 33 31 30 30 30 34 39 36 41 39 37 34 30 34 35 30 35 43 35 31 43